Location: Leipzig
(51.3392°N, 12.3528°E)
Time: 03:00:14
(UTC+01:00)

ISS - Pass Details

Date: 14 November 2017
Orbit: 402 x 407 km, 51.6° (Epoch: 23 November)

Event Time Altitude Azimuth Distance (km) Brightness Sun altitude
Exits shadow 04:12:25 12° 102° (ESE) 1,327 -0.5 -30.1°
Drops below altitude 10° 04:12:44 10° 102° (ESE) 1,456 -0.2 -30.0°
Sets 04:14:49 0° 102° (ESE) 2,314 1.0 -29.7°
